| time (UTC) | temp C | wind direction | speed KPH | gust KPH | rain 1hr cm | rain 24hr cm | rain mn cm | humidity % | barometer mb |
| 20260504034522 | 14 | 322 | 0.0 | 3.2 | 0.00 | 0.00 | 0.00 | 76 | 1019.3 |
| 20260504034009 | 14 | 322 | 0.0 | 3.2 | 0.00 | 0.00 | 0.00 | 74 | 1019.2 |
| 20260504033508 | 14 | 322 | 0.0 | 3.2 | 0.00 | 0.00 | 0.00 | 75 | 1019.2 |
| 20260504033024 | 14 | 318 | 0.0 | 3.2 | 0.00 | 0.00 | 0.00 | 76 | 1019.1 |
| 20260504032508 | 14 | 318 | 0.0 | 3.2 | 0.00 | 0.00 | 0.00 | 77 | 1019.2 |
| 20260504032007 | 14 | 318 | 0.0 | 3.2 | 0.00 | 0.00 | 0.00 | 78 | 1019.3 |
| 20260504031528 | 14 | 318 | 0.0 | 3.2 | 0.00 | 0.00 | 0.00 | 78 | 1019.3 |
| 20260504031010 | 14 | 318 | 0.0 | 3.2 | 0.00 | 0.00 | 0.00 | 80 | 1019.3 |
| 20260504030509 | 14 | 318 | 0.0 | 3.2 | 0.00 | 0.00 | 0.00 | 80 | 1019.3 |
| 20260504030017 | 14 | 318 | 0.0 | 3.2 | 0.00 | 0.00 | 0.00 | 80 | 1019.2 |
| 20260504025504 | 14 | 318 | 0.0 | 3.2 | 0.00 | 0.00 | 0.00 | 81 | 1019.3 |
| 20260504025008 | 14 | 223 | 0.0 | 3.2 | 0.00 | 0.00 | 0.00 | 81 | 1019.3 |
| 20260504024524 | 13 | 196 | 0.0 | 0.0 | 0.00 | 0.00 | 0.00 | 81 | 1019.3 |
| 20260504024009 | 13 | 196 | 0.0 | 0.0 | 0.00 | 0.00 | 0.00 | 81 | 1019.1 |
| 20260504023507 | 13 | 196 | 0.0 | 0.0 | 0.00 | 0.00 | 0.00 | 80 | 1019.0 |
| 20260504023025 | 14 | 196 | 0.0 | 0.0 | 0.00 | 0.00 | 0.00 | 79 | 1018.9 |
| 20260504022507 | 14 | 196 | 0.0 | 3.2 | 0.00 | 0.00 | 0.00 | 78 | 1018.9 |
| 20260504022010 | 14 | 196 | 0.0 | 3.2 | 0.00 | 0.00 | 0.00 | 78 | 1018.9 |
| 20260504021526 | 15 | 196 | 0.0 | 3.2 | 0.00 | 0.00 | 0.00 | 77 | 1018.8 |
| 20260504021008 | 15 | 196 | 0.0 | 3.2 | 0.00 | 0.00 | 0.00 | 76 | 1018.8 |
| 20260504020507 | 15 | 196 | 0.0 | 0.0 | 0.00 | 0.00 | 0.00 | 75 | 1018.8 |
| 20260504020028 | 15 | 196 | 0.0 | 3.2 | 0.00 | 0.00 | 0.00 | 75 | 1018.7 |
| 20260504015511 | 15 | 196 | 0.0 | 3.2 | 0.00 | 0.00 | 0.00 | 74 | 1018.7 |
| 20260504015006 | 15 | 196 | 0.0 | 0.0 | 0.00 | 0.00 | 0.00 | 73 | 1018.6 |
| 20260504014524 | 15 | 196 | 0.0 | 0.0 | 0.00 | 0.00 | 0.00 | 72 | 1018.6 |
| 20260504014007 | 16 | 196 | 0.0 | 0.0 | 0.00 | 0.00 | 0.00 | 71 | 1018.5 |
| 20260504013506 | 16 | 196 | 0.0 | 0.0 | 0.00 | 0.00 | 0.00 | 69 | 1018.4 |
| 20260504013021 | 16 | 196 | 0.0 | 0.0 | 0.00 | 0.00 | 0.00 | 68 | 1018.4 |
| 20260504012507 | 16 | 196 | 0.0 | 0.0 | 0.00 | 0.00 | 0.00 | 67 | 1018.5 |
| 20260504012008 | 17 | 196 | 0.0 | 0.0 | 0.00 | 0.00 | 0.00 | 65 | 1018.4 |
| 20260504011509 | 17 | 196 | 0.0 | 0.0 | 0.00 | 0.00 | 0.00 | 64 | 1018.3 |
| 20260504011006 | 17 | 196 | 0.0 | 0.0 | 0.00 | 0.00 | 0.00 | 63 | 1018.3 |
| 20260504010508 | 17 | 196 | 0.0 | 3.2 | 0.00 | 0.00 | 0.00 | 62 | 1018.3 |
| 20260504010009 | 18 | 196 | 0.0 | 3.2 | 0.00 | 0.00 | 0.00 | 61 | 1018.3 |
| 20260504005505 | 18 | 190 | 0.0 | 3.2 | 0.00 | 0.00 | 0.00 | 60 | 1018.2 |
| 20260504005004 | 18 | 190 | 0.0 | 3.2 | 0.00 | 0.00 | 0.00 | 59 | 1018.1 |
| 20260504004518 | 18 | 190 | 0.0 | 3.2 | 0.00 | 0.00 | 0.00 | 57 | 1018.2 |
| 20260504004004 | 19 | 196 | 0.0 | 3.2 | 0.00 | 0.00 | 0.00 | 57 | 1018.1 |
| 20260504003511 | 19 | 194 | 0.0 | 4.8 | 0.00 | 0.00 | 0.00 | 55 | 1018.1 |
| 20260504003018 | 20 | 194 | 1.6 | 4.8 | 0.00 | 0.00 | 0.00 | 55 | 1018.0 |
| 20260504002507 | 20 | 203 | 0.0 | 4.8 | 0.00 | 0.00 | 0.00 | 53 | 1017.9 |
| 20260504002003 | 20 | 198 | 1.6 | 4.8 | 0.00 | 0.00 | 0.00 | 52 | 1018.0 |
| 20260504001505 | 21 | 248 | 0.0 | 3.2 | 0.00 | 0.00 | 0.00 | 50 | 1017.9 |
| 20260504001002 | 21 | 171 | 0.0 | 3.2 | 0.00 | 0.00 | 0.00 | 49 | 1017.9 |
| 20260504000505 | 22 | 241 | 1.6 | 3.2 | 0.00 | 0.00 | 0.00 | 47 | 1017.8 |
| 20260504000007 | 22 | 202 | 0.0 | 4.8 | 0.00 | 0.00 | 0.00 | 46 | 1017.9 |
| 20260503235502 | 22 | 196 | 1.6 | 4.8 | 0.00 | 0.00 | 0.00 | 45 | 1017.9 |
| 20260503235003 | 22 | 221 | 1.6 | 3.2 | 0.00 | 0.00 | 0.00 | 44 | 1017.8 |
| 20260503234512 | 22 | 194 | 0.0 | 3.2 | 0.00 | 0.00 | 0.00 | 45 | 1017.8 |
| 20260503234006 | 22 | 180 | 1.6 | 3.2 | 0.00 | 0.00 | 0.00 | 44 | 1017.8 |
| 20260503233505 | 23 | 255 | 0.0 | 3.2 | 0.00 | 0.00 | 0.00 | 41 | 1017.9 |
| 20260503233018 | 23 | 200 | 1.6 | 3.2 | 0.00 | 0.00 | 0.00 | 39 | 1017.8 |
| 20260503232506 | 23 | 304 | 0.0 | 4.8 | 0.00 | 0.00 | 0.00 | 40 | 1017.8 |
| 20260503232007 | 23 | 110 | 0.0 | 4.8 | 0.00 | 0.00 | 0.00 | 40 | 1017.9 |
| 20260503231520 | 24 | 165 | 1.6 | 6.4 | 0.00 | 0.00 | 0.00 | 38 | 1017.9 |
| 20260503231004 | 24 | 305 | 3.2 | 6.4 | 0.00 | 0.00 | 0.00 | 34 | 1017.8 |
| 20260503230503 | 24 | 76 | 1.6 | 4.8 | 0.00 | 0.00 | 0.00 | 33 | 1017.8 |
| 20260503230008 | 24 | 352 | 1.6 | 9.7 | 0.00 | 0.00 | 0.00 | 34 | 1017.8 |
| 20260503225503 | 24 | 46 | 4.8 | 9.7 | 0.00 | 0.00 | 0.00 | 32 | 1017.9 |
| 20260503225002 | 25 | 9 | 1.6 | 6.4 | 0.00 | 0.00 | 0.00 | 33 | 1017.8 |
| 20260503224511 | 24 | 117 | 1.6 | 4.8 | 0.00 | 0.00 | 0.00 | 31 | 1017.7 |
| 20260503224003 | 24 | 62 | 3.2 | 9.7 | 0.00 | 0.00 | 0.00 | 31 | 1017.8 |
| 20260503223503 | 25 | 100 | 3.2 | 14.5 | 0.00 | 0.00 | 0.00 | 30 | 1017.8 |
| 20260503223016 | 25 | 360 | 6.4 | 14.5 | 0.00 | 0.00 | 0.00 | 30 | 1017.7 |
| 20260503222506 | 25 | 342 | 4.8 | 12.9 | 0.00 | 0.00 | 0.00 | 31 | 1017.8 |
| 20260503222008 | 25 | 352 | 3.2 | 12.9 | 0.00 | 0.00 | 0.00 | 31 | 1017.8 |
| 20260503221526 | 25 | 84 | 4.8 | 12.9 | 0.00 | 0.00 | 0.00 | 32 | 1017.8 |
| 20260503221007 | 25 | 38 | 1.6 | 8.0 | 0.00 | 0.00 | 0.00 | 31 | 1017.8 |
| 20260503220509 | 25 | 352 | 1.6 | 8.0 | 0.00 | 0.00 | 0.00 | 29 | 1017.8 |
| 20260503220005 | 25 | 313 | 3.2 | 14.5 | 0.00 | 0.00 | 0.00 | 31 | 1017.8 |
| 20260503215504 | 25 | 331 | 4.8 | 14.5 | 0.00 | 0.00 | 0.00 | 31 | 1017.9 |
| 20260503215003 | 25 | 310 | 3.2 | 12.9 | 0.00 | 0.00 | 0.00 | 31 | 1017.9 |
| 20260503214511 | 25 | 187 | 1.6 | 11.3 | 0.00 | 0.00 | 0.00 | 29 | 1017.9 |
| 20260503214005 | 25 | 336 | 1.6 | 11.3 | 0.00 | 0.00 | 0.00 | 31 | 1018.0 |
| 20260503213506 | 25 | 56 | 3.2 | 6.4 | 0.00 | 0.00 | 0.00 | 30 | 1018.1 |
| 20260503213012 | 25 | 271 | 3.2 | 12.9 | 0.00 | 0.00 | 0.00 | 29 | 1018.1 |
| 20260503212506 | 25 | 319 | 1.6 | 12.9 | 0.00 | 0.00 | 0.00 | 29 | 1018.1 |
| 20260503212006 | 25 | 321 | 3.2 | 11.3 | 0.00 | 0.00 | 0.00 | 29 | 1018.1 |
| 20260503211517 | 25 | 336 | 4.8 | 11.3 | 0.00 | 0.00 | 0.00 | 30 | 1018.2 |
| 20260503211010 | 25 | 334 | 4.8 | 9.7 | 0.00 | 0.00 | 0.00 | 29 | 1018.3 |
| 20260503210507 | 25 | 343 | 3.2 | 14.5 | 0.00 | 0.00 | 0.00 | 29 | 1018.3 |
| 20260503210024 | 25 | 332 | 4.8 | 14.5 | 0.00 | 0.00 | 0.00 | 31 | 1018.3 |
| 20260503205508 | 25 | 360 | 3.2 | 17.7 | 0.00 | 0.00 | 0.00 | 29 | 1018.3 |
| 20260503205004 | 25 | 352 | 3.2 | 17.7 | 0.00 | 0.00 | 0.00 | 30 | 1018.4 |
| 20260503204507 | 25 | 315 | 3.2 | 12.9 | 0.00 | 0.00 | 0.00 | 30 | 1018.5 |
| 20260503204005 | 25 | 346 | 4.8 | 12.9 | 0.00 | 0.00 | 0.00 | 32 | 1018.6 |
| 20260503203507 | 25 | 82 | 4.8 | 12.9 | 0.00 | 0.00 | 0.00 | 29 | 1018.6 |
| 20260503203015 | 25 | 13 | 4.8 | 12.9 | 0.00 | 0.00 | 0.00 | 28 | 1018.7 |
| 20260503202506 | 26 | 325 | 3.2 | 11.3 | 0.00 | 0.00 | 0.00 | 30 | 1018.6 |
| 20260503202004 | 25 | 306 | 3.2 | 11.3 | 0.00 | 0.00 | 0.00 | 29 | 1018.6 |
| 20260503201518 | 25 | 37 | 3.2 | 16.1 | 0.00 | 0.00 | 0.00 | 29 | 1018.7 |
| 20260503201007 | 25 | 279 | 3.2 | 16.1 | 0.00 | 0.00 | 0.00 | 31 | 1018.8 |
| 20260503200512 | 25 | 310 | 6.4 | 14.5 | 0.00 | 0.00 | 0.00 | 32 | 1018.8 |
| 20260503200021 | 25 | 317 | 3.2 | 11.3 | 0.00 | 0.00 | 0.00 | 29 | 1018.8 |
| 20260503195508 | 25 | 323 | 4.8 | 11.3 | 0.00 | 0.00 | 0.00 | 30 | 1019.0 |
| 20260503195013 | 25 | 46 | 1.6 | 14.5 | 0.00 | 0.00 | 0.00 | 27 | 1019.2 |
| 20260503194525 | 25 | 294 | 6.4 | 14.5 | 0.00 | 0.00 | 0.00 | 29 | 1019.3 |
| 20260503194004 | 25 | 342 | 3.2 | 9.7 | 0.00 | 0.00 | 0.00 | 32 | 1019.4 |
| 20260503193504 | 24 | 10 | 1.6 | 12.9 | 0.00 | 0.00 | 0.00 | 30 | 1019.5 |
| 20260503193009 | 25 | 49 | 4.8 | 12.9 | 0.00 | 0.00 | 0.00 | 31 | 1019.7 |
| 20260503192504 | 25 | 332 | 4.8 | 12.9 | 0.00 | 0.00 | 0.00 | 30 | 1019.6 |
| 20260503192006 | 24 | 360 | 3.2 | 6.4 | 0.00 | 0.00 | 0.00 | 33 | 1019.7 |
| 20260503191520 | 24 | 281 | 1.6 | 16.1 | 0.00 | 0.00 | 0.00 | 31 | 1019.7 |
| 20260503191007 | 24 | 346 | 3.2 | 16.1 | 0.00 | 0.00 | 0.00 | 31 | 1019.8 |
| 20260503190504 | 24 | 86 | 6.4 | 17.7 | 0.00 | 0.00 | 0.00 | 31 | 1019.9 |
| 20260503190020 | 25 | 61 | 4.8 | 17.7 | 0.00 | 0.00 | 0.00 | 31 | 1020.0 |
| 20260503185505 | 25 | 5 | 1.6 | 8.0 | 0.00 | 0.00 | 0.00 | 36 | 1020.0 |
| 20260503185007 | 24 | 335 | 4.8 | 9.7 | 0.00 | 0.00 | 0.00 | 32 | 1020.1 |
| 20260503184525 | 24 | 288 | 0.0 | 17.7 | 0.00 | 0.00 | 0.00 | 35 | 1020.2 |
| 20260503184011 | 24 | 5 | 9.7 | 17.7 | 0.00 | 0.00 | 0.00 | 32 | 1020.5 |
| 20260503183507 | 24 | 5 | 3.2 | 14.5 | 0.00 | 0.00 | 0.00 | 34 | 1020.5 |
| 20260503183011 | 24 | 275 | 3.2 | 12.9 | 0.00 | 0.00 | 0.00 | 36 | 1020.6 |
| 20260503182505 | 23 | 343 | 3.2 | 12.9 | 0.00 | 0.00 | 0.00 | 35 | 1020.7 |
| 20260503182006 | 23 | 314 | 3.2 | 11.3 | 0.00 | 0.00 | 0.00 | 35 | 1020.7 |
| 20260503181513 | 23 | 294 | 4.8 | 16.1 | 0.00 | 0.00 | 0.00 | 33 | 1020.7 |
| 20260503181006 | 23 | 26 | 6.4 | 16.1 | 0.00 | 0.00 | 0.00 | 34 | 1020.8 |
| 20260503180508 | 23 | 331 | 6.4 | 16.1 | 0.00 | 0.00 | 0.00 | 33 | 1020.8 |
| 20260503180018 | 23 | 196 | 3.2 | 12.9 | 0.00 | 0.00 | 0.00 | 32 | 1020.8 |
| 20260503175507 | 23 | 103 | 3.2 | 12.9 | 0.00 | 0.00 | 0.00 | 34 | 1020.8 |
| 20260503175006 | 23 | 150 | 3.2 | 17.7 | 0.00 | 0.00 | 0.00 | 31 | 1020.8 |
| 20260503174523 | 23 | 71 | 6.4 | 17.7 | 0.00 | 0.00 | 0.00 | 31 | 1020.9 |
| 20260503174007 | 23 | 350 | 4.8 | 14.5 | 0.00 | 0.00 | 0.00 | 31 | 1020.7 |
| 20260503173507 | 23 | 30 | 6.4 | 16.1 | 0.00 | 0.00 | 0.00 | 32 | 1020.9 |
| 20260503173029 | 23 | 348 | 6.4 | 19.3 | 0.00 | 0.00 | 0.00 | 33 | 1020.9 |
| 20260503172510 | 23 | 338 | 8.0 | 19.3 | 0.00 | 0.00 | 0.00 | 31 | 1021.0 |
| 20260503172010 | 22 | 74 | 6.4 | 20.9 | 0.00 | 0.00 | 0.00 | 32 | 1021.2 |
| 20260503171512 | 22 | 24 | 8.0 | 20.9 | 0.00 | 0.00 | 0.00 | 31 | 1021.4 |
| 20260503171005 | 23 | 33 | 4.8 | 16.1 | 0.00 | 0.00 | 0.00 | 33 | 1021.3 |
| 20260503170506 | 22 | 321 | 3.2 | 17.7 | 0.00 | 0.00 | 0.00 | 34 | 1021.3 |
| 20260503151003 | 21 | 299 | 3.2 | 12.9 | 0.00 | 0.00 | 0.00 | 42 | 1022.2 |
| 20260503150503 | 21 | 327 | 6.4 | 12.9 | 0.00 | 0.00 | 0.00 | 39 | 1022.2 |
| 20260503131008 | 16 | 67 | 1.6 | 6.4 | 0.00 | 0.00 | 0.00 | 62 | 1021.3 |
| 20260503130508 | 16 | 29 | 1.6 | 6.4 | 0.00 | 0.00 | 0.00 | 61 | 1021.1 |
| 20260503110506 | 6 | 334 | 0.0 | 3.2 | 0.00 | 0.28 | 0.00 | 90 | 1020.4 |
| 20260503090509 | 7 | 334 | 0.0 | 0.0 | 0.00 | 0.69 | 0.00 | 91 | 1019.6 |
| 20260503081526 | 7 | 334 | 0.0 | 0.0 | 0.00 | 0.97 | 0.00 | 90 | 1019.5 |
| 20260503081010 | 7 | 334 | 0.0 | 0.0 | 0.00 | 1.04 | 0.00 | 89 | 1019.5 |
| 20260503080504 | 7 | 334 | 0.0 | 0.0 | 0.00 | 1.12 | 0.00 | 89 | 1019.4 |
| 20260503072507 | 8 | 334 | 0.0 | 3.2 | 0.00 | 1.42 | 0.00 | 88 | 1019.2 |
| 20260503072009 | 8 | 334 | 0.0 | 3.2 | 0.00 | 1.42 | 0.00 | 89 | 1019.3 |
| 20260503071526 | 8 | 334 | 0.0 | 3.2 | 0.00 | 1.45 | 0.00 | 88 | 1019.3 |
| 20260503071008 | 8 | 334 | 0.0 | 0.0 | 0.00 | 1.47 | 0.00 | 88 | 1019.3 |
| 20260503070513 | 8 | 334 | 0.0 | 0.0 | 0.00 | 1.52 | 0.00 | 88 | 1019.3 |
| 20260503055005 | 9 | 334 | 0.0 | 0.0 | 0.00 | 1.78 | 0.00 | 82 | 1018.9 |
| 20260503054511 | 9 | 334 | 0.0 | 3.2 | 0.00 | 1.78 | 0.00 | 82 | 1018.9 |
| 20260503054004 | 10 | 334 | 0.0 | 3.2 | 0.00 | 1.78 | 0.00 | 82 | 1019.0 |
| 20260503053504 | 10 | 334 | 0.0 | 0.0 | 0.00 | 1.78 | 0.00 | 81 | 1019.0 |
| 20260503053019 | 10 | 334 | 0.0 | 3.2 | 0.00 | 1.78 | 0.00 | 79 | 1019.0 |
| 20260503052504 | 10 | 334 | 0.0 | 3.2 | 0.00 | 1.78 | 0.00 | 79 | 1018.8 |
| 20260503052005 | 10 | 334 | 0.0 | 3.2 | 0.00 | 1.78 | 0.00 | 80 | 1018.9 |
| 20260503051506 | 10 | 334 | 0.0 | 3.2 | 0.00 | 1.78 | 0.00 | 80 | 1018.8 |
| 20260503051004 | 10 | 334 | 0.0 | 3.2 | 0.00 | 1.80 | 0.00 | 80 | 1018.8 |
| 20260503050505 | 10 | 334 | 0.0 | 0.0 | 0.00 | 1.80 | 0.00 | 79 | 1018.7 |
| 20260503050020 | 10 | 334 | 0.0 | 0.0 | 0.00 | 1.80 | 0.00 | 78 | 1018.7 |
| 20260503045509 | 11 | 334 | 0.0 | 3.2 | 0.00 | 1.80 | 1.80 | 77 | 1018.6 |
| 20260503045009 | 11 | 334 | 0.0 | 3.2 | 0.00 | 1.80 | 1.80 | 75 | 1018.7 |
| 20260503044519 | 11 | 334 | 0.0 | 3.2 | 0.00 | 1.80 | 1.80 | 73 | 1018.7 |
| 20260503044008 | 11 | 334 | 0.0 | 3.2 | 0.00 | 1.80 | 1.80 | 73 | 1018.6 |
| 20260503043504 | 11 | 334 | 0.0 | 3.2 | 0.00 | 1.80 | 1.80 | 74 | 1018.4 |
| 20260503043017 | 11 | 336 | 0.0 | 1.6 | 0.00 | 1.80 | 1.80 | 74 | 1018.3 |
| 20260503042505 | 11 | 337 | 0.0 | 3.2 | 0.00 | 1.80 | 1.80 | 74 | 1018.4 |
| 20260503042006 | 11 | 336 | 0.0 | 3.2 | 0.00 | 1.80 | 1.80 | 75 | 1018.3 |
| 20260503041506 | 11 | 337 | 0.0 | 3.2 | 0.00 | 1.80 | 1.80 | 75 | 1018.3 |
| 20260503041002 | 11 | 336 | 0.0 | 3.2 | 0.00 | 1.80 | 1.80 | 76 | 1018.3 |
| 20260503040503 | 11 | 336 | 0.0 | 3.2 | 0.00 | 1.83 | 1.80 | 77 | 1018.3 |
| 20260503040011 | 10 | 336 | 0.0 | 3.2 | 0.00 | 1.85 | 1.80 | 78 | 1018.3 |
| 20260503035504 | 10 | 336 | 0.0 | 3.2 | 0.00 | 1.88 | 1.80 | 80 | 1018.3 |
| 20260503035005 | 10 | 337 | 0.0 | 0.0 | 0.00 | 1.93 | 1.80 | 79 | 1018.3 |